Bangor, ME

5:24 PM EST on November 17, 2019 (GMT -0500)
Bangor International

Weather History for KBGR - October, 2019

Change the Weather History Date:

Friday, October 18, 2019

  Actual Average Record
Temperature  
Mean Temperature 48 °F 46 °F  
Max Temperature 53 °F 57 °F 84 °F (1947)
Min Temperature 43 °F 36 °F 23 °F (1940)
Degree Days  
Heating Degree Days 17 19  
Month to date heating degree days 261 281  
Since 1 July heating degree days 475 553  
Cooling Degree Days 0 0  
Month to date cooling degree days 0 0  
Year to date cooling degree days 336 317  
Moisture  
Dew Point 40 °F    
Average Humidity 77    
Maximum Humidity 100    
Minimum Humidity 54    
Precipitation  
Precipitation 0.01 in 0.13 in 1.69 in (1936)
Month to date precipitation 2.74 2.44  
Year to date precipitation 41.76 32.52  
Snow  
Snow 0.00 in 0.00 in 0.20 in (1970)
Month to date snowfall 0.0 0.0  
Since 1 July snowfall 0.0 0.0  
Since 1 September snowfall 0.0 0.0  
Snow Depth 0.00 in    
Sea Level Pressure  
Sea Level Pressure 29.51 in    
Wind  
Wind Speed 8 mph (WNW)    
Max Wind Speed 20 mph    
Max Gust Speed 27 mph    
Visibility 10 miles    
Events Fog , Rain    
T = Trace of Precipitation, MM = Missing Value Source: NWS Daily Summary

Daily Weather History Graph

Daily Weather History Graph

Search for Another Location

Airport or City:

Astronomy

Oct. 18, 2019 Rise Set
Actual Time 6:54 AM EDT 5:45 PM EDT
Civil Twilight 6:24 AM EDT 6:15 PM EDT
Nautical Twilight 5:50 AM EDT 6:49 PM EDT
Astronomical Twilight 5:16 AM EDT 7:23 PM EDT
Moon 8:49 PM EDT (10/18) 11:33 AM EDT (10/18)
Length of Visible Light 11h 50m
Length of Day
10h 51m
Waning Gibbous, 79% of the Moon is Illuminated
Oct 18
Waning Gibbous
Oct 21
Last Quarter
Oct 27
New
Nov 4
First Quarter
Nov 12
Full

Hourly Weather History & Observations

Time (EDT) Temp. Windchill Dew Point Humidity Pressure Visibility Wind Dir Wind Speed Gust Speed Precip Events Conditions
12:53 AM 45.0 °F 42.6 °F 45.0 °F 100% 29.21 in 10.0 mi West 4.6 mph - N/A Fog Patches of Fog
1:53 AM 46.9 °F - 45.0 °F 93% 29.24 in 10.0 mi West 4.6 mph - N/A   Overcast
2:53 AM 48.0 °F - 45.0 °F 89% 29.27 in 10.0 mi West 8.1 mph - N/A   Overcast
3:09 AM 46.9 °F - 45.0 °F 93% 29.28 in 3.0 mi Variable 6.9 mph - 0.01 in Rain Light Rain
3:53 AM 46.9 °F - 43.0 °F 86% 29.31 in 10.0 mi West 8.1 mph - 0.01 in   Overcast
4:24 AM 45.0 °F 39.7 °F 41.0 °F 86% 29.34 in 10.0 mi WNW 10.4 mph - N/A   Scattered Clouds
4:53 AM 45.0 °F 39.3 °F 37.9 °F 76% 29.36 in 10.0 mi West 11.5 mph 18.4 mph N/A   Partly Cloudy
5:53 AM 44.1 °F 39.0 °F 37.9 °F 79% 29.40 in 10.0 mi WNW 9.2 mph - N/A   Mostly Cloudy
6:53 AM 44.1 °F 42.5 °F 37.9 °F 79% 29.43 in 10.0 mi West 3.5 mph - N/A   Overcast
7:53 AM 44.1 °F 42.5 °F 37.9 °F 79% 29.46 in 10.0 mi Variable 3.5 mph - N/A   Mostly Cloudy
8:53 AM 46.0 °F 43.1 °F 37.9 °F 73% 29.49 in 10.0 mi WNW 5.8 mph - N/A   Mostly Cloudy
9:53 AM 46.9 °F - 37.0 °F 68% 29.52 in 10.0 mi WNW 11.5 mph - N/A   Overcast
10:53 AM 48.9 °F - 37.0 °F 64% 29.52 in 10.0 mi NW 16.1 mph 24.2 mph N/A   Mostly Cloudy
11:53 AM 50.0 °F - 37.0 °F 61% 29.54 in 10.0 mi WNW 11.5 mph - N/A   Overcast
12:53 PM 51.1 °F - 37.0 °F 59% 29.55 in 10.0 mi WNW 10.4 mph 20.7 mph N/A   Overcast
1:53 PM 53.1 °F - 37.9 °F 57% 29.55 in 10.0 mi NW 16.1 mph 24.2 mph N/A   Overcast
2:53 PM 51.1 °F - 41.0 °F 68% 29.58 in 10.0 mi NW 6.9 mph - 0.00 in   Overcast
3:53 PM 53.1 °F - 39.9 °F 61% 29.60 in 10.0 mi WNW 15.0 mph 24.2 mph 0.00 in   Mostly Cloudy
4:53 PM 52.0 °F - 39.9 °F 63% 29.62 in 10.0 mi NW 13.8 mph 21.9 mph N/A   Mostly Cloudy
5:53 PM 50.0 °F - 41.0 °F 71% 29.65 in 10.0 mi WNW 11.5 mph 20.7 mph N/A   Mostly Cloudy
6:53 PM 50.0 °F - 41.0 °F 71% 29.68 in 10.0 mi WNW 6.9 mph 17.3 mph N/A   Mostly Cloudy
7:53 PM 48.9 °F - 39.9 °F 71% 29.70 in 10.0 mi WNW 11.5 mph 20.7 mph N/A   Mostly Cloudy
8:53 PM 48.9 °F - 39.0 °F 69% 29.73 in 10.0 mi WNW 10.4 mph - N/A   Mostly Cloudy
9:53 PM 48.9 °F - 39.0 °F 69% 29.75 in 10.0 mi WNW 9.2 mph - N/A   Mostly Cloudy
10:53 PM 46.9 °F - 37.9 °F 71% 29.77 in 10.0 mi West 6.9 mph - N/A   Scattered Clouds
11:53 PM 46.0 °F 41.4 °F 37.9 °F 73% 29.78 in 10.0 mi WNW 9.2 mph - N/A   Clear